星链-5897 (STARLINK-5897 )

导读 | 豆包AI

STARLINK-5897是美国SpaceX公司星链星座的卫星,于2023年3月17日发射入轨,属于星链第二代低轨互联网星座的部署卫星。星链项目旨在构建全球覆盖的卫星互联网系统,为偏远地区、航空海运等场景提供高速网络服务,同时兼具军事应用潜力。该卫星服役于近地轨道,单颗设计寿命超5年,助力星链完成全球组网布局,不过大规模卫星部署也引发太空安全等争议。

基本信息
目录编号:
55931
目录名称:
STARLINK-5897
国际标识:
2023-037T
轨道中心:
EARTH
卫星名称:
星链-5897
卫星全名:
星链-5897 (STARLINK-5897 )
卫星状态:
在轨 (已飞行1140 天)
发射日期:
2023-03-17 UTC
国别 :
美国 (US)
星等 :
--
轨道信息
数据来源 国际轨道数据
星历时间: 2026-04-30T12:12:49+0800
6小时前
查看轨道信息
半长轴: 6950.182km
偏心率: 0.0003539
轨道倾角: 70.001°
近地点辐角 273.472°
升交点赤经 174.465°
平近点角 86.603°
近地点: 569.585km
远地点: 574.505km
周期: 96.107分钟
每日圈数: 14.983336
详细信息
固有亮度:
5
最大亮度:
2.5
卫星平台:
Starlink v1.5
覆盖范围:
全球
运营商:
太空探索技术公司
运营商所在国:
美国
制造商(研发单位):
太空探索技术公司
制造商所在国:
美国
使用方式:
暂无
卫星简介
星链(Starlink)计划是由太空探索技术公司(SpaceX)提出的一个巨型低轨卫星互联网星座项目,计划在2019年至2024年间在太空搭建由约1.2万颗卫星组成的“星链”网络,其中1584颗将部署在地球上空550千米处的近地轨道,并从2020年开始工作。该卫星仍在工作。
2D轨道图
3D轨道图
轨道高度分析图
轨道倾角分析图
轨道综合分析图
查看轨道综合分析图